Total_Precipitation_Accumulation
0.14 0.17 0.23 0.42 0.53 0.44 0.34 0.31 0.39 0.38 0.37 0.41 0.49 0.59 0.57 0.52 0.50 0.49 0.48 0.43 0.43 0.42 0.41 0.41 0.41 0.41 0.50 0.65 0.80 1.00 1.23 1.22 1.07 1.00 0.93 0.80 0.73 0.72 0.70 0.74 0.71 0.72 0.81 0.91
0.08 0.09 0.13 0.22 0.27 0.22 0.15 0.19 0.28 0.34 0.39 0.43 0.50 0.57 0.53 0.45 0.38 0.32 0.31 0.30 0.30 0.28 0.27 0.23 0.21 0.23 0.24 0.34 0.53 0.71 0.88 0.96 0.93 0.84 0.73 0.70 0.69 0.67 0.63 0.62 0.58 0.57 0.60 0.66
0.09 0.08 0.11 0.18 0.17 0.18 0.21 0.20 0.21 0.32 0.43 0.47 0.60 0.80 0.70 0.53 0.43 0.31 0.25 0.24 0.24 0.23 0.23 0.22 0.22 0.21 0.22 0.26 0.34 0.45 0.60 0.69 0.69 0.63 0.56 0.54 0.58 0.56 0.52 0.46 0.47 0.45 0.45 0.45
0.16 0.18 0.29 0.28 0.21 0.29 0.38 0.31 0.26 0.34 0.42 0.52 0.85 1.06 0.69 0.45 0.41 0.34 0.25 0.23 0.22 0.23 0.21 0.19 0.19 0.19 0.21 0.23 0.25 0.28 0.35 0.41 0.43 0.42 0.41 0.42 0.43 0.42 0.41 0.40 0.39 0.38 0.44 0.51
0.24 0.26 0.46 0.38 0.20 0.33 0.40 0.35 0.27 0.34 0.41 0.43 0.48 0.43 0.27 0.17 0.18 0.21 0.16 0.14 0.13 0.13 0.11 0.10 0.10 0.11 0.12 0.14 0.16 0.17 0.18 0.21 0.22 0.23 0.27 0.32 0.33 0.37 0.45 0.47 0.44 0.44 0.54 0.62
0.21 0.24 0.33 0.29 0.11 0.18 0.28 0.35 0.16 0.16 0.18 0.14 0.10 0.11 0.14 0.13 0.09 0.08 0.07 0.07 0.06 0.05 0.05 0.05 0.05 0.07 0.07 0.09 0.11 0.11 0.11 0.12 0.15 0.17 0.20 0.24 0.28 0.31 0.32 0.33 0.39 0.46 0.48 0.45
0.16 0.19 0.15 0.08 0.08 0.12 0.28 0.31 0.10 0.07 0.06 0.03 0.04 0.04 0.09 0.13 0.09 0.06 0.05 0.06 0.05 0.04 0.04 0.04 0.05 0.05 0.05 0.06 0.08 0.11 0.14 0.15 0.16 0.18 0.19 0.21 0.18 0.15 0.17 0.22 0.25 0.26 0.28 0.33
0.13 0.17 0.13 0.07 0.09 0.14 0.14 0.08 0.05 0.04 0.04 0.03 0.03 0.03 0.04 0.08 0.06 0.05 0.04 0.05 0.05 0.06 0.06 0.05 0.05 0.06 0.06 0.07 0.09 0.11 0.12 0.13 0.15 0.14 0.13 0.14 0.14 0.12 0.12 0.15 0.19 0.22 0.25 0.30
0.14 0.15 0.12 0.09 0.08 0.06 0.04 0.04 0.03 0.03 0.03 0.03 0.03 0.03 0.02 0.04 0.04 0.03 0.03 0.06 0.07 0.10 0.13 0.12 0.08 0.07 0.08 0.10 0.11 0.11 0.11 0.13 0.14 0.14 0.14 0.11 0.10 0.11 0.12 0.14 0.16 0.20 0.24 0.31
0.14 0.10 0.09 0.08 0.05 0.03 0.02 0.03 0.02 0.03 0.02 0.03 0.03 0.04 0.03 0.02 0.04 0.03 0.03 0.06 0.10 0.14 0.17 0.19 0.15 0.11 0.10 0.10 0.11 0.12 0.11 0.13 0.14 0.15 0.16 0.13 0.12 0.11 0.11 0.12 0.14 0.19 0.26 0.32
0.12 0.08 0.07 0.06 0.05 0.03 0.02 0.01 0.02 0.02 0.01 0.01 0.02 0.02 0.02 0.02 0.02 0.03 0.03 0.04 0.08 0.15 0.17 0.16 0.16 0.15 0.13 0.13 0.11 0.11 0.11 0.13 0.13 0.16 0.18 0.15 0.11 0.10 0.11 0.12 0.16 0.22 0.26 0.30
0.12 0.08 0.07 0.06 0.04 0.03 0.03 0.02 0.02 0.03 0.02 0.01 0.02 0.02 0.02 0.02 0.03 0.03 0.03 0.04 0.06 0.09 0.11 0.12 0.13 0.14 0.12 0.12 0.12 0.11 0.12 0.13 0.13 0.13 0.13 0.14 0.15 0.13 0.12 0.12 0.14 0.16 0.18 0.22
0.11 0.10 0.08 0.06 0.05 0.04 0.05 0.03 0.02 0.02 0.03 0.02 0.02 0.02 0.02 0.03 0.04 0.04 0.04 0.04 0.05 0.06 0.06 0.09 0.10 0.10 0.10 0.09 0.09 0.08 0.09 0.11 0.11 0.11 0.10 0.10 0.13 0.18 0.19 0.15 0.12 0.11 0.11 0.16
0.08 0.10 0.10 0.08 0.07 0.06 0.05 0.04 0.03 0.03 0.03 0.04 0.03 0.03 0.03 0.04 0.04 0.05 0.05 0.05 0.06 0.07 0.06 0.06 0.07 0.08 0.08 0.07 0.07 0.08 0.09 0.09 0.10 0.12 0.12 0.11 0.12 0.19 0.30 0.35 0.28 0.17 0.14 0.15
0.06 0.08 0.09 0.10 0.09 0.07 0.06 0.04 0.04 0.04 0.04 0.04 0.03 0.04 0.04 0.05 0.05 0.06 0.06 0.06 0.07 0.06 0.06 0.06 0.06 0.07 0.07 0.06 0.07 0.07 0.09 0.11 0.14 0.18 0.17 0.14 0.15 0.23 0.30 0.24 0.22 0.23 0.20 0.17
0.04 0.05 0.06 0.09 0.09 0.08 0.07 0.06 0.05 0.05 0.05 0.05 0.05 0.05 0.06 0.07 0.08 0.09 0.07 0.07 0.07 0.06 0.06 0.06 0.06 0.08 0.08 0.07 0.07 0.07 0.07 0.11 0.15 0.23 0.22 0.15 0.16 0.20 0.20 0.19 0.23 0.25 0.24 0.23
0.05 0.04 0.05 0.08 0.09 0.09 0.09 0.08 0.07 0.07 0.06 0.07 0.07 0.07 0.08 0.07 0.09 0.09 0.08 0.08 0.06 0.06 0.07 0.07 0.06 0.08 0.10 0.10 0.09 0.08 0.09 0.11 0.14 0.20 0.23 0.17 0.17 0.19 0.17 0.18 0.21 0.22 0.23 0.24
0.07 0.06 0.06 0.08 0.10 0.11 0.11 0.10 0.09 0.07 0.06 0.07 0.08 0.08 0.08 0.08 0.10 0.10 0.10 0.10 0.07 0.07 0.09 0.10 0.10 0.10 0.11 0.10 0.09 0.09 0.10 0.12 0.13 0.17 0.19 0.18 0.16 0.18 0.20 0.18 0.17 0.19 0.21 0.22
0.10 0.10 0.09 0.11 0.13 0.13 0.11 0.10 0.08 0.07 0.08 0.08 0.09 0.09 0.08 0.10 0.11 0.10 0.12 0.11 0.09 0.09 0.11 0.12 0.13 0.13 0.12 0.11 0.11 0.11 0.12 0.14 0.14 0.15 0.16 0.16 0.15 0.15 0.19 0.20 0.19 0.19 0.21 0.22
0.15 0.15 0.14 0.14 0.15 0.14 0.13 0.11 0.10 0.10 0.09 0.10 0.11 0.10 0.11 0.11 0.11 0.11 0.12 0.12 0.11 0.11 0.13 0.14 0.12 0.12 0.12 0.11 0.12 0.12 0.12 0.14 0.15 0.15 0.16 0.17 0.17 0.17 0.18 0.18 0.20 0.24 0.25 0.24
0.19 0.17 0.15 0.14 0.14 0.15 0.14 0.13 0.13 0.13 0.12 0.12 0.13 0.14 0.15 0.15 0.16 0.16 0.15 0.16 0.15 0.15 0.15 0.15 0.12 0.12 0.14 0.15 0.16 0.15 0.15 0.16 0.17 0.17 0.19 0.21 0.22 0.23 0.22 0.22 0.25 0.29 0.26 0.26
0.18 0.18 0.17 0.16 0.16 0.16 0.15 0.15 0.15 0.16 0.16 0.16 0.16 0.16 0.17 0.19 0.19 0.18 0.17 0.18 0.19 0.20 0.18 0.16 0.14 0.16 0.21 0.23 0.19 0.18 0.18 0.20 0.21 0.22 0.23 0.25 0.27 0.27 0.28 0.28 0.28 0.27 0.26 0.28
0.16 0.16 0.18 0.18 0.17 0.17 0.17 0.17 0.16 0.16 0.18 0.18 0.18 0.17 0.17 0.17 0.16 0.16 0.18 0.19 0.19 0.22 0.20 0.20 0.20 0.23 0.28 0.24 0.22 0.22 0.22 0.24 0.25 0.25 0.27 0.30 0.31 0.32 0.33 0.34 0.33 0.30 0.30 0.32
0.17 0.18 0.19 0.19 0.18 0.19 0.20 0.18 0.16 0.16 0.17 0.16 0.15 0.16 0.17 0.18 0.18 0.17 0.19 0.22 0.22 0.22 0.20 0.23 0.25 0.27 0.29 0.24 0.22 0.22 0.23 0.25 0.27 0.27 0.29 0.33 0.34 0.34 0.34 0.34 0.35 0.34 0.34 0.35
0.18 0.18 0.19 0.19 0.20 0.20 0.19 0.19 0.18 0.17 0.17 0.16 0.16 0.16 0.17 0.18 0.19 0.21 0.22 0.22 0.23 0.23 0.21 0.24 0.27 0.27 0.25 0.24 0.25 0.25 0.26 0.28 0.31 0.34 0.34 0.35 0.36 0.37 0.37 0.38 0.40 0.41 0.41 0.41
0.19 0.19 0.18 0.18 0.20 0.21 0.21 0.22 0.22 0.20 0.21 0.21 0.19 0.18 0.20 0.21 0.21 0.21 0.23 0.26 0.27 0.28 0.26 0.27 0.29 0.30 0.29 0.28 0.29 0.30 0.30 0.32 0.34 0.34 0.36 0.38 0.39 0.39 0.40 0.41 0.43 0.44 0.46 0.47
0.23 0.21 0.20 0.21 0.22 0.24 0.26 0.27 0.28 0.27 0.27 0.25 0.24 0.22 0.25 0.29 0.27 0.25 0.25 0.27 0.30 0.31 0.30 0.31 0.33 0.35 0.38 0.39 0.40 0.38 0.37 0.35 0.35 0.36 0.39 0.42 0.44 0.44 0.44 0.44 0.45 0.46 0.49 0.50